W5ITZ Weather Reports


time (UTC)temp
C
wind
direction
speed
KPH
gust
KPH
rain 1hr
cm
rain 24hr
cm
rain mn
cm
humidity
%
barometer
mb
20260506103051 24 136 3.2 3.2 0.00 0.00 0.00 95 1008.4
20260506102549 24 127 4.8 4.8 0.00 0.00 0.00 95 1008.3
20260506102046 24 119 4.8 3.2 0.00 0.00 0.00 95 1008.3
20260506101543 24 124 4.8 3.2 0.00 0.00 0.00 95 1008.3
20260506101040 24 138 4.8 4.8 0.00 0.00 0.00 95 1008.2
20260506100538 24 148 6.4 8.0 0.00 0.00 0.00 95 1008.1
20260506100036 24 163 4.8 4.8 0.00 0.00 0.00 95 1008.3
20260506095535 24 134 4.8 4.8 0.00 0.00 0.00 95 1008.1
20260506095030 24 140 6.4 8.0 0.00 0.00 0.00 94 1008.3
20260506094528 24 152 4.8 4.8 0.00 0.00 0.00 94 1008.2
20260506094026 24 148 8.0 8.0 0.00 0.00 0.00 94 1008.2
20260506093524 24 135 8.0 8.0 0.00 0.00 0.00 94 1008.2
20260506093021 24 149 6.4 9.7 0.00 0.00 0.00 94 1008.1
20260506092519 24 163 6.4 8.0 0.00 0.00 0.00 94 1008.0
20260506092015 24 158 4.8 4.8 0.00 0.00 0.00 94 1008.1
20260506091514 24 155 4.8 4.8 0.00 0.00 0.00 94 1008.1
20260506091011 24 144 8.0 9.7 0.00 0.00 0.00 94 1007.8
20260506090509 24 138 8.0 9.7 0.00 0.00 0.00 94 1008.0
20260506090005 24 167 9.7 11.3 0.00 0.00 0.00 94 1007.9
20260506085501 24 142 8.0 9.7 0.00 0.00 0.00 94 1008.0
20260506084958 24 150 8.0 9.7 0.00 0.00 0.00 94 1008.1
20260506084455 24 152 8.0 9.7 0.00 0.00 0.00 93 1008.2
20260506083951 24 196 11.3 11.3 0.00 0.00 0.00 93 1008.2
20260506083448 24 157 9.7 9.7 0.00 0.00 0.00 94 1008.2
20260506082945 24 148 11.3 11.3 0.00 0.00 0.00 93 1008.2
20260506082442 24 165 8.0 9.7 0.00 0.00 0.00 93 1008.0
20260506081938 24 150 8.0 8.0 0.00 0.00 0.00 93 1008.0
20260506081437 24 147 9.7 9.7 0.00 0.00 0.00 94 1008.1
20260506080934 24 147 11.3 11.3 0.00 0.00 0.00 94 1008.2
20260506080431 24 176 8.0 8.0 0.00 0.00 0.00 94 1008.2
20260506073415 25 175 11.3 11.3 0.00 0.00 0.00 93 1008.5
20260506072912 25 150 11.3 11.3 0.00 0.00 0.00 93 1008.7
20260506072409 25 148 9.7 11.3 0.00 0.00 0.00 93 1008.9
20260506071907 25 176 8.0 9.7 0.00 0.00 0.00 93 1008.8
20260506071405 25 166 8.0 9.7 0.00 0.00 0.00 93 1009.0
20260506070901 25 174 12.9 14.5 0.00 0.00 0.00 93 1008.7
20260506070358 25 176 9.7 11.3 0.00 0.00 0.00 93 1009.0
20260506062335 25 195 9.7 11.3 0.00 0.00 0.00 92 1009.5
20260506061831 25 193 8.0 9.7 0.00 0.00 0.00 92 1009.3
20260506061328 25 187 9.7 9.7 0.00 0.00 0.00 92 1009.3
20260506060826 25 188 6.4 9.7 0.00 0.00 0.00 92 1009.4
20260506060324 25 215 9.7 9.7 0.00 0.00 0.00 92 1009.4
20260506051255 25 198 16.1 17.7 0.00 0.00 0.00 92 1008.7
20260506050754 25 176 12.9 16.1 0.00 0.00 0.00 91 1009.1
20260506050251 25 142 12.9 16.1 0.00 0.00 0.00 91 1008.9
20260506044741 25 179 9.7 11.3 0.00 0.00 0.00 91 1009.0
20260506044238 25 189 17.7 20.9 0.00 0.00 0.00 91 1008.7
20260506043736 25 188 12.9 14.5 0.00 0.00 0.00 91 1008.7
20260506043233 25 206 17.7 22.5 0.00 0.00 0.00 91 1008.6
20260506042732 25 166 11.3 14.5 0.00 0.00 0.00 91 1008.7
20260506042230 25 173 17.7 17.7 0.00 0.00 0.00 91 1008.7
20260506041728 25 182 14.5 14.5 0.00 0.00 0.00 91 1008.8
20260506041225 25 162 14.5 16.1 0.00 0.00 0.00 91 1008.8
20260506040722 25 150 14.5 16.1 0.00 0.00 0.00 90 1008.6
20260506040219 25 169 17.7 17.7 0.00 0.00 0.00 90 1008.6
20260506035716 25 176 19.3 25.7 0.00 0.00 0.00 91 1008.5
20260506035213 25 185 11.3 12.9 0.00 0.00 0.00 90 1008.6
20260506034709 25 184 19.3 20.9 0.00 0.00 0.00 90 1008.3
20260506034207 25 161 17.7 17.7 0.00 0.00 0.00 90 1008.5
20260506033704 25 157 12.9 14.5 0.00 0.00 0.00 90 1008.4
20260506033201 25 195 16.1 17.7 0.00 0.00 0.00 90 1008.6
20260506032658 25 183 19.3 22.5 0.00 0.00 0.00 91 1008.4
20260506032155 25 165 12.9 17.7 0.00 0.00 0.00 91 1008.7
20260506031651 25 181 11.3 12.9 0.00 0.00 0.00 91 1008.7
20260506031149 25 167 11.3 12.9 0.00 0.00 0.00 91 1008.7
20260506030647 25 162 14.5 14.5 0.00 0.00 0.00 91 1008.5
20260506030144 25 164 12.9 12.9 0.00 0.00 0.00 91 1008.5
20260506025641 25 168 14.5 17.7 0.00 0.00 0.00 91 1008.4
20260506025137 25 183 16.1 16.1 0.00 0.00 0.00 91 1008.2
20260506024635 25 188 14.5 16.1 0.00 0.00 0.00 91 1008.3
20260506024130 25 188 14.5 16.1 0.00 0.00 0.00 91 1008.1
20260506023627 25 176 14.5 16.1 0.00 0.00 0.00 91 1008.1
20260506023124 25 176 11.3 12.9 0.00 0.00 0.00 91 1008.1
20260506022622 25 166 17.7 17.7 0.00 0.00 0.00 91 1008.0
20260506022119 25 178 9.7 11.3 0.00 0.00 0.00 91 1007.9
20260506021616 25 185 9.7 11.3 0.00 0.00 0.00 91 1007.8
20260506021114 25 181 9.7 12.9 0.00 0.00 0.00 91 1007.6
20260506020610 25 169 12.9 14.5 0.00 0.00 0.00 91 1007.6
20260506020108 25 189 11.3 12.9 0.00 0.00 0.00 91 1007.5
20260506015606 25 155 16.1 16.1 0.00 0.00 0.00 91 1007.5
20260506015102 25 182 14.5 16.1 0.00 0.00 0.00 90 1007.8
20260506014600 25 158 16.1 17.7 0.00 0.00 0.00 90 1007.5
20260506014055 25 191 22.5 24.1 0.00 0.00 0.00 90 1007.3
20260506013554 25 171 17.7 17.7 0.00 0.00 0.00 90 1007.4
20260506013050 25 191 11.3 14.5 0.00 0.00 0.00 90 1007.2
20260506012546 25 187 14.5 17.7 0.00 0.00 0.00 89 1007.0
20260506012043 25 177 14.5 17.7 0.00 0.00 0.00 89 1007.0
20260506011541 25 192 12.9 14.5 0.00 0.00 0.00 89 1007.1
20260506011036 25 200 14.5 14.5 0.00 0.00 0.00 88 1006.9
20260506010531 25 188 17.7 17.7 0.00 0.00 0.00 88 1006.8
20260506010027 25 148 19.3 20.9 0.00 0.00 0.00 88 1006.8
20260506005524 25 177 12.9 16.1 0.00 0.00 0.00 87 1006.7
20260506005020 25 186 19.3 25.7 0.00 0.00 0.00 87 1006.7
20260506004518 25 176 20.9 25.7 0.00 0.00 0.00 86 1006.7
20260506004014 25 195 20.9 29.0 0.00 0.00 0.00 87 1006.7
20260506003510 25 200 17.7 20.9 0.00 0.00 0.00 87 1006.6
20260506003006 25 182 20.9 25.7 0.00 0.00 0.00 87 1006.7
20260506002502 25 176 19.3 24.1 0.00 0.00 0.00 87 1006.8
20260506001958 25 179 17.7 20.9 0.00 0.00 0.00 86 1006.7
20260506001455 25 182 17.7 20.9 0.00 0.00 0.00 86 1006.7
20260506000952 25 185 22.5 24.1 0.00 0.00 0.00 86 1006.8
20260506000449 26 175 22.5 24.1 0.00 0.00 0.00 86 1006.5
20260505235946 26 148 16.1 17.7 0.00 0.00 0.00 85 1006.5
20260505235445 26 170 17.7 20.9 0.00 0.00 0.00 85 1006.7
20260505234941 26 166 24.1 25.7 0.00 0.00 0.00 85 1006.5
20260505234439 26 179 20.9 22.5 0.00 0.00 0.00 85 1006.4
20260505233935 26 163 17.7 20.9 0.00 0.00 0.00 85 1006.5
20260505233433 26 180 24.1 29.0 0.00 0.00 0.00 85 1006.5
20260505232930 26 170 14.5 16.1 0.00 0.00 0.00 85 1006.6
20260505232428 26 194 19.3 22.5 0.00 0.00 0.00 84 1006.5
20260505231924 26 171 20.9 24.1 0.00 0.00 0.00 84 1006.8
20260505231422 26 161 24.1 27.4 0.00 0.00 0.00 83 1006.7
20260505230920 26 179 25.7 33.8 0.00 0.00 0.00 84 1006.7
20260505230418 26 187 19.3 24.1 0.00 0.00 0.00 83 1006.6
20260505225914 26 197 24.1 27.4 0.00 0.00 0.00 83 1006.6
20260505225411 26 158 20.9 22.5 0.00 0.00 0.00 83 1006.7
20260505224906 26 183 24.1 27.4 0.00 0.00 0.00 82 1006.8
20260505224404 26 183 20.9 24.1 0.00 0.00 0.00 82 1006.8
20260505223901 26 202 16.1 17.7 0.00 0.00 0.00 82 1006.9
20260505223358 26 205 19.3 22.5 0.00 0.00 0.00 83 1007.0
20260505222854 26 202 17.7 22.5 0.00 0.00 0.00 82 1006.9
20260505222350 26 192 12.9 12.9 0.00 0.00 0.00 83 1007.1
20260505221847 26 182 20.9 24.1 0.00 0.00 0.00 82 1007.0
20260505221344 26 177 19.3 24.1 0.00 0.00 0.00 82 1007.1
20260505220841 26 184 22.5 25.7 0.00 0.00 0.00 83 1007.1
20260505220338 26 169 24.1 27.4 0.00 0.00 0.00 82 1007.1
20260505215836 26 186 22.5 24.1 0.00 0.00 0.00 82 1007.5
20260505215333 26 179 14.5 16.1 0.00 0.00 0.00 83 1007.4
20260505214831 26 179 20.9 24.1 0.00 0.00 0.00 82 1007.3
20260505214328 26 174 20.9 25.7 0.00 0.00 0.00 82 1007.3
20260505213825 26 132 20.9 25.7 0.00 0.00 0.00 81 1007.5
20260505213324 26 172 17.7 22.5 0.00 0.00 0.00 81 1007.4
20260505212819 26 161 17.7 20.9 0.00 0.00 0.00 81 1007.5
20260505212317 26 177 20.9 24.1 0.00 0.00 0.00 81 1007.4
20260505211812 26 159 17.7 22.5 0.00 0.00 0.00 81 1007.7
20260505211310 26 178 22.5 25.7 0.00 0.00 0.00 81 1007.6
20260505210806 27 170 22.5 27.4 0.00 0.00 0.00 80 1007.6
20260505210303 27 161 20.9 24.1 0.00 0.00 0.00 81 1007.7
20260505205800 27 160 16.1 16.1 0.00 0.00 0.00 81 1007.7
20260505205259 27 160 12.9 14.5 0.00 0.00 0.00 81 1007.7
20260505204755 27 134 17.7 24.1 0.00 0.00 0.00 80 1007.7
20260505204253 27 128 14.5 17.7 0.00 0.00 0.00 80 1008.1
20260505203750 27 212 17.7 20.9 0.00 0.00 0.00 78 1008.1
20260505203247 27 208 11.3 12.9 0.00 0.00 0.00 79 1008.1
20260505202742 27 177 20.9 24.1 0.00 0.00 0.00 81 1008.2
20260505202239 27 151 17.7 20.9 0.00 0.00 0.00 82 1008.3
20260505201736 27 206 19.3 22.5 0.00 0.00 0.00 78 1008.5
20260505201233 27 205 19.3 22.5 0.00 0.00 0.00 78 1008.3
20260505200732 27 179 19.3 24.1 0.00 0.00 0.00 77 1008.6
20260505200229 27 207 17.7 20.9 0.00 0.00 0.00 78 1008.4
20260505195724 27 181 12.9 14.5 0.00 0.00 0.00 79 1008.6
20260505195222 27 193 14.5 16.1 0.00 0.00 0.00 78 1008.6
20260505194719 27 180 11.3 14.5 0.00 0.00 0.00 78 1008.6
20260505194215 27 199 14.5 14.5 0.00 0.00 0.00 78 1008.6
20260505193711 26 196 19.3 24.1 0.00 0.00 0.00 78 1008.6
20260505193208 27 199 12.9 14.5 0.00 0.00 0.00 79 1008.8
20260505192707 27 197 19.3 22.5 0.00 0.00 0.00 78 1008.6
20260505192204 26 219 19.3 22.5 0.00 0.00 0.00 79 1008.7
20260505191702 26 202 20.9 22.5 0.00 0.00 0.00 79 1008.7
20260505191200 26 197 20.9 24.1 0.00 0.00 0.00 78 1008.7
20260505190656 26 207 19.3 22.5 0.00 0.00 0.00 78 1008.6
20260505190156 27 171 22.5 24.1 0.00 0.00 0.00 78 1008.8
20260505185653 27 198 17.7 20.9 0.00 0.00 0.00 77 1008.6
20260505185149 27 198 17.7 17.7 0.00 0.00 0.00 78 1008.9
20260505184645 27 193 16.1 17.7 0.00 0.00 0.00 78 1009.0
20260505184143 27 203 17.7 17.7 0.00 0.00 0.00 78 1009.1
20260505183640 27 194 19.3 24.1 0.00 0.00 0.00 78 1008.8
20260505183137 26 201 12.9 17.7 0.00 0.00 0.00 79 1009.0
20260505182633 27 186 17.7 20.9 0.00 0.00 0.00 78 1009.0
20260505182130 27 197 16.1 16.1 0.00 0.00 0.00 78 1008.9
20260505181627 26 206 19.3 22.5 0.00 0.00 0.00 78 1009.0
20260505181124 26 178 17.7 20.9 0.00 0.00 0.00 79 1009.1
20260505180620 27 205 16.1 17.7 0.00 0.00 0.00 79 1009.4
20260505180118 26 170 16.1 16.1 0.00 0.00 0.00 80 1009.3
20260505175614 26 183 14.5 16.1 0.00 0.00 0.00 80 1009.2
20260505175110 26 193 17.7 20.9 0.00 0.00 0.00 81 1009.3
20260505174607 26 194 16.1 20.9 0.00 0.00 0.00 81 1009.4
20260505174103 26 196 14.5 20.9 0.00 0.00 0.00 81 1009.6
20260505173600 26 203 24.1 27.4 0.00 0.00 0.00 81 1009.4
20260505173057 26 170 20.9 24.1 0.00 0.00 0.00 81 1009.4
20260505172554 26 186 16.1 16.1 0.00 0.00 0.00 81 1009.3
20260505172051 26 199 17.7 17.7 0.00 0.00 0.00 81 1009.5
20260505171545 26 206 19.3 22.5 0.00 0.00 0.00 82 1009.5
20260505171043 26 208 17.7 20.9 0.00 0.00 0.00 83 1009.7
20260505170539 26 194 16.1 16.1 0.00 0.00 0.00 83 1009.6
20260505170036 26 197 12.9 12.9 0.00 0.00 0.00 82 1009.4
20260505165531 26 169 12.9 14.5 0.00 0.00 0.00 82 1009.5
20260505165027 26 194 17.7 20.9 0.00 0.00 0.00 83 1009.5
20260505164523 26 206 17.7 17.7 0.00 0.00 0.00 83 1009.6
20260505164021 26 208 14.5 14.5 0.00 0.00 0.00 83 1009.6
20260505163520 26 192 14.5 16.1 0.00 0.00 0.00 83 1009.6
20260505163016 26 205 11.3 12.9 0.00 0.00 0.00 83 1009.6
20260505162509 26 191 12.9 14.5 0.00 0.00 0.00 84 1009.6
20260505162006 26 219 14.5 14.5 0.00 0.00 0.00 84 1009.8
20260505161503 25 218 17.7 20.9 0.00 0.00 0.00 83 1009.4
20260505161000 26 204 11.3 12.9 0.00 0.00 0.00 84 1009.5
20260505160458 26 226 16.1 20.9 0.00 0.00 0.00 83 1009.5
20260505152934 25 212 12.9 14.5 0.00 0.00 0.00 87 1009.4
20260505152432 25 201 14.5 14.5 0.00 0.00 0.00 87 1009.1
20260505151931 25 187 16.1 17.7 0.00 0.00 0.00 88 1009.4
20260505151422 25 224 11.3 11.3 0.00 0.00 0.00 88 1009.3
20260505150920 25 202 14.5 14.5 0.00 0.00 0.00 88 1009.1
20260505150416 25 206 11.3 12.9 0.00 0.00 0.00 89 1009.3
20260505140346 24 169 14.5 16.1 0.00 0.00 0.00 92 1009.3
20260505130310 23 196 11.3 11.3 0.00 0.00 0.00 95 1009.2
20260505124800 22 199 8.0 9.7 0.00 0.00 0.00 95 1009.0
20260505124257 22 192 8.0 9.7 0.00 0.00 0.00 95 1008.9
20260505123752 22 205 8.0 9.7 0.00 0.00 0.00 95 1008.9
20260505123249 22 201 9.7 9.7 0.00 0.00 0.00 95 1008.9
20260505122745 22 196 9.7 11.3 0.00 0.00 0.00 95 1008.8
20260505122243 22 203 6.4 8.0 0.00 0.00 0.00 95 1008.7
20260505121740 22 207 4.8 4.8 0.00 0.00 0.00 95 1008.6
20260505121237 22 211 6.4 8.0 0.00 0.00 0.00 95 1008.5
20260505120733 22 195 8.0 8.0 0.00 0.00 0.00 95 1008.6
20260505120229 22 203 9.7 9.7 0.00 0.00 0.00 95 1008.5
20260505115728 22 189 6.4 8.0 0.00 0.00 0.00 95 1008.6
20260505115226 22 203 6.4 8.0 0.00 0.00 0.00 95 1008.6
20260505114722 22 194 8.0 9.7 0.00 0.00 0.00 95 1008.7
20260505114218 22 193 6.4 8.0 0.00 0.00 0.00 95 1008.6
20260505113715 22 175 6.4 8.0 0.00 0.00 0.00 95 1008.6
20260505113212 22 174 8.0 9.7 0.00 0.00 0.00 95 1008.7
20260505112708 22 175 4.8 4.8 0.00 0.00 0.00 95 1008.6
20260505112206 22 178 6.4 8.0 0.00 0.00 0.00 95 1008.4
20260505111706 22 174 6.4 8.0 0.00 0.00 0.00 95 1008.5
20260505111202 22 188 4.8 4.8 0.00 0.00 0.00 95 1008.6
20260505110658 22 186 6.4 8.0 0.00 0.00 0.00 95 1008.6
20260505110155 22 174 4.8 4.8 0.00 0.00 0.00 95 1008.5